Flag for Reunion (French) Weather past 2 weeks in Saint-Denis, Reunion (French)

Now
84 °F

Partly sunny.


Feels Like: 90 °F
Forecast: 73 / 84 °F
Wind: 7 mph from East

Location: Saint-Denis / Gillot

Current Time: Apr 1, 2015 at 5:11:55 PM

Latest Report: Apr 1, 2015 at 4:30 PM


Visibility: N/A

Pressure: 29.86 "Hg

Humidity: 66%

Dew point: 72 °F

Location of Saint-DenisLocation

Historic Weather in Saint-Denis — Graph

°F

Saint-Denis temperature yesterday

Maximum temperature yesterday: 86 °F (at 10:30 AM)
Minimum temperature yesterday: 72 °F (at 2:00 AM)
Average temperature yesterday: 80 °F

Past Weeks' High & Low Weather Summary

 TemperatureHumidityPressure
High88 °F (Mar 21, 10:30 AM)94% (Mar 18, 9:30 PM)30.07 "Hg (Mar 18, 9:30 PM)
Low68 °F (Mar 26, 6:00 AM)55% (Apr 1, 12:00 PM)29.83 "Hg (Apr 1, 4:00 AM)
Average80 °F74%29.97 "Hg
* Reported Mar 17 4:00 PM — Apr 1 4:00 PM, Saint-Denis, Weather by CustomWeather, © 2015

Note: Actual official high and low records may vary slightly from our data, if they occured in-between our weather recording intervals... More about our weather records

Advertising

Saint-Denis weather history for previous 24 hours

 ConditionsComfort  
Time TempWeatherWind HumidityBarometerVisibility
4:00 PM
Wed, Apr 1
84 °FPartly sunny.7 mph66%29.86 "HgN/A
3:30 PM84 °FPartly sunny.7 mph66%29.86 "HgN/A
3:00 PM86 °FPartly sunny.7 mph62%29.86 "HgN/A
2:36 PM86 °FPartly sunny.7 mph59%29.86 "HgN/A
2:00 PM86 °FPartly sunny.7 mph62%29.86 "HgN/A
1:30 PM86 °FPartly sunny.7 mph62%29.86 "HgN/A
1:00 PM86 °FPartly sunny.7 mph62%29.86 "HgN/A
12:30 PM86 °FPartly sunny.7 mph59%29.89 "HgN/A
12:00 PM86 °FPartly sunny.9 mph55%29.89 "HgN/A
11:30 AM86 °FPartly sunny.9 mph62%29.89 "HgN/A
11:00 AM84 °FPartly sunny.10 mph66%29.92 "HgN/A
10:30 AM84 °FPartly sunny.12 mph66%29.92 "HgN/A
10:00 AM84 °FPartly sunny.10 mph66%29.92 "HgN/A
9:30 AM82 °FPartly sunny.9 mph70%29.92 "HgN/A
9:00 AM82 °FPartly sunny.10 mph70%29.92 "HgN/A
8:30 AM81 °FPartly sunny.9 mph74%29.89 "HgN/A
8:00 AM79 °FPartly sunny.9 mph79%29.89 "HgN/A
7:30 AM77 °FPartly sunny.10 mph74%29.89 "HgN/A
7:00 AM73 °FPartly sunny.8 mph78%29.86 "HgN/A
6:30 AM75 °FPartly sunny.9 mph74%29.86 "HgN/A
6:00 AM73 °FPartly sunny.7 mph78%29.86 "HgN/A
5:30 AM72 °FClear.6 mph83%29.83 "HgN/A
5:00 AM73 °FClear.8 mph78%29.83 "HgN/A
4:30 AM73 °FClear.7 mph78%29.83 "HgN/A
4:00 AM73 °FClear.7 mph83%29.83 "HgN/A
3:30 AM72 °FClear.2 mph88%29.86 "HgN/A
3:00 AM73 °FClear.8 mph83%29.86 "HgN/A
2:30 AM73 °FClear.5 mph83%29.86 "HgN/A
2:00 AM73 °FClear.6 mph83%29.89 "HgN/A
1:30 AM75 °FClear.7 mph78%29.89 "HgN/A
1:00 AM75 °FClear.6 mph78%29.89 "HgN/A
12:30 AM75 °FClear.6 mph83%29.92 "HgN/A
12:00 AM77 °FClear.6 mph79%29.92 "HgN/A
11:30 PM
Tue, Mar 31
77 °FClear.9 mph83%29.92 "HgN/A
11:00 PM77 °FClear.8 mph83%29.92 "HgN/A
10:30 PM77 °FClear.9 mph83%29.95 "HgN/A
10:00 PM77 °FPassing clouds.7 mph83%29.95 "HgN/A
9:30 PM77 °FPassing clouds.7 mph83%29.95 "HgN/A
9:00 PM79 °FPartly cloudy.9 mph84%29.95 "HgN/A
8:30 PM79 °FPartly cloudy.8 mph84%29.95 "HgN/A
8:00 PM79 °FLight rain. Mostly cloudy.9 mph84%29.92 "HgN/A
7:30 PM81 °FMostly cloudy.7 mph74%29.92 "HgN/A
7:00 PM81 °FOvercast.7 mph79%29.92 "HgN/A
6:30 PM81 °FMostly cloudy.8 mph79%29.92 "HgN/A
6:00 PM81 °FMostly cloudy.7 mph79%29.89 "HgN/A
5:30 PM82 °FPassing clouds.9 mph74%29.89 "HgN/A
5:00 PM82 °FScattered clouds.12 mph74%29.89 "HgN/A
Weather by CustomWeather, © 2015

See weather overviewHow to use our weather pages